Lawrence, KS

8:08 PM CST on December 03, 2016 (GMT -0600)
Lawrence Municipal

Weather History for KLWC - February, 2013

Change the Weather History Date:

Sunday, February 17, 2013

  Actual Average Record
Temperature  
Mean Temperature 43 °F 35 °F  
Max Temperature 61 °F 46 °F 75 °F (2011)
Min Temperature 25 °F 23 °F 7 °F (2006)
Degree Days  
Heating Degree Days 22 30  
Month to date heating degree days 487 552  
Since 1 July heating degree days 3424 3703  
Cooling Degree Days 0 0  
Month to date cooling degree days 0 0  
Year to date cooling degree days 0 0  
Moisture  
Dew Point 27 °F    
Average Humidity 55    
Maximum Humidity 75    
Minimum Humidity 35    
Precipitation  
Precipitation 0.00 in 0.04 in 0.75 in (2008)
Month to date precipitation 0.84 0.79  
Year to date precipitation 1.80 1.80  
Sea Level Pressure  
Sea Level Pressure 29.89 in    
Wind  
Wind Speed 10 mph (SE)    
Max Wind Speed 20 mph    
Max Gust Speed 25 mph    
Visibility 10 miles    
Events      
T = Trace of Precipitation, MM = Missing Value Source: NWS Daily Summary

Daily Weather History Graph

Daily Weather History Graph

Search for Another Location

Airport or City:

Trip Planner

Search our weather history database for the weather conditions in past years. The results will help you decide how hot, cold, wet, or windy it might be!

Date:

Astronomy

Feb. 17, 2013 Rise Set
Actual Time 7:09 AM CST 6:00 PM CST
Civil Twilight 6:42 AM CST 6:28 PM CST
Nautical Twilight 6:11 AM CST 6:59 PM CST
Astronomical Twilight 5:40 AM CST 7:30 PM CST
Moon 11:06 AM CST (2/17) 12:53 AM CST (2/17)
Length of Visible Light 11h 45m
Length of Day
10h 51m
Waxing Crescent, 49% of the Moon is Illuminated
Feb 17
Waxing Crescent
Feb 17
First Quarter
Feb 25
Full
Mar 4
Last Quarter
Mar 11
New

Hourly Weather History & Observations

Time (CST) Temp. Windchill Dew Point Humidity Pressure Visibility Wind Dir Wind Speed Gust Speed Precip Events Conditions
12:52 AM 34.0 °F 29.8 °F 21.0 °F 59% 30.07 in 10.0 mi SSE 4.6 mph - N/A   Overcast
1:52 AM 30.0 °F 23.2 °F 19.9 °F 66% 30.07 in 10.0 mi SSE 6.9 mph - N/A   Clear
2:52 AM 30.0 °F - 19.9 °F 66% 30.06 in 10.0 mi Calm Calm - N/A   Overcast
3:52 AM 28.9 °F 23.9 °F 19.9 °F 69% 30.04 in 10.0 mi ESE 4.6 mph - N/A   Partly Cloudy
4:52 AM 28.9 °F 21.9 °F 19.0 °F 67% 30.03 in 10.0 mi East 6.9 mph - N/A   Clear
5:52 AM 26.1 °F 20.5 °F 18.0 °F 71% 30.05 in 10.0 mi East 4.6 mph - N/A   Clear
6:52 AM 26.1 °F 18.4 °F 19.0 °F 75% 30.03 in 10.0 mi East 6.9 mph - N/A   Clear
7:52 AM 28.9 °F 22.8 °F 21.9 °F 75% 30.02 in 8.0 mi ESE 5.8 mph - N/A   Clear
8:52 AM 33.1 °F 27.7 °F 21.9 °F 64% 30.01 in 9.0 mi SE 5.8 mph - N/A   Clear
10:52 AM 45.0 °F 39.7 °F 27.0 °F 49% 29.96 in 10.0 mi SE 10.4 mph - N/A   Clear
11:52 AM 50.0 °F - 30.0 °F 46% 29.94 in 10.0 mi SE 12.7 mph - N/A   Clear
12:52 PM 54.0 °F - 30.9 °F 41% 29.89 in 10.0 mi SE 12.7 mph - N/A   Clear
1:52 PM 57.9 °F - 32.0 °F 37% 29.84 in 10.0 mi South 15.0 mph - N/A   Clear
2:52 PM 60.1 °F - 32.0 °F 35% 29.81 in 10.0 mi SSE 15.0 mph - N/A   Clear
3:52 PM 60.1 °F - 32.0 °F 35% 29.78 in 10.0 mi South 17.3 mph - N/A   Clear
4:52 PM 57.9 °F - 32.0 °F 37% 29.75 in 10.0 mi SE 12.7 mph - N/A   Clear
5:52 PM 53.1 °F - 33.1 °F 47% 29.75 in 9.0 mi SE 8.1 mph - N/A   Clear
6:52 PM 48.9 °F - 33.1 °F 54% 29.74 in 10.0 mi SE 8.1 mph - N/A   Clear
7:52 PM 45.0 °F 40.6 °F 33.1 °F 63% 29.72 in 10.0 mi SE 8.1 mph - N/A   Clear
8:52 PM 52.0 °F - 33.1 °F 49% 29.70 in 10.0 mi South 16.1 mph 23.0 mph N/A   Clear
9:52 PM 53.1 °F - 32.0 °F 45% 29.68 in 10.0 mi South 13.8 mph - N/A   Clear
11:52 PM 55.0 °F - 30.9 °F 40% 29.65 in 10.0 mi South 15.0 mph 25.3 mph N/A   Clear